Location: Newark
(35.2672°N, 80.7344°W)
Time: 13:59:49
(UTC+00:00)

Tiros 1 - Pass Details

Date: 29 January 2020
Orbit: 631 x 664 km, 48.4° (Epoch: 26 February)

Event Time Altitude Azimuth Distance (km) Brightness Sun altitude
Rises 22:38:34 0° 306° (NW) 2,969 11.0 0.9°
Reaches altitude 10° 22:40:54 10° 306° (NW) 2,061 10.2 0.5°
Maximum altitude 22:45:40 85° 218° (SW) 663 7.4 -0.4°
Drops below altitude 10° 22:50:27 10° 130° (SE) 2,068 9.5 -1.4°
Sets 22:52:48 0° 130° (SE) 2,979 10.3 -1.8°
